Погода в Ивановке

Украина / Кировоградская область     48°45′17″N   31°14′55″E
В апреле 2022 года жителям России запретили посещать сайт meteo.paraplan.net по решению Генеральной прокуратуры. Аудитория сайта уменьшилась в 10 раз. Владельцы сайта не видят смысла в поддержке погодного сервера в таких условиях. Сайт будет закрыт в октябре.
темп.,
°C
ветер,
м/с
пор.,
м/с
влажн.,
%
обл.,
%
осадки,
мм/ч
давл.,
гПа
погр.,
м
30 сентября, пт
пт3000:00+15ююв3786100 1.8 1010180
03:00+15ююв4109535 5.0 1010253
06:00+14ююв369822 0.9 1010129
09:00+17юз358914 0.9 1011237
12:00+22юз3558100 0.0 1013796
15:00+23юз4549100 0.0 10131403
18:00+21зсз226351 0.0 101423
21:00+17зюз227441 0.0 101517
1 октября, сб
сб100:00+16ююз2275100 0.0 101611
03:00+16ююв34755 0.0 101657
06:00+15ююз377826 0.0 1016130
09:00+17зюз476980 0.0 1017223
12:00+22зюз4651100 0.0 1017677
15:00+23зюз4544100 0.0 10161133
18:00+21ююз1155100 0.0 101511
21:00+19ююв3458100 0.0 101352
2 октября, вс
вс200:00+18ююв3965100 0.0 1011166
03:00+16ююв2391100 1.8 100969
06:00+15ю4989100 0.3 1007180
09:00+16з3680100 0.3 1006327
12:00+15зсз3591100 0.4 1006223
15:00+18зсз687297 1.9 1005960
18:00+13зсз81386100 0.6 1006799
21:00+11сз71389100 3.2 1007814
3 октября, пн
пн300:00+11сз7128574 0.7 1007838
03:00+11зсз61187100 0.8 1008735
06:00+10зсз61187100 0.9 1008697
09:00+10зсз71284100 1.1 10091036
12:00+10зсз71185100 1.1 1010887
15:00+12зсз7107793 1.8 1011974
18:00+11зсз597767 0.3 1012688
21:00+9з398899 0.3 1014265
4 октября, вт
вт400:00+10зюз4882100 0.1 1015349
03:00+10з4985100 0.1 1015419
06:00+9юз4987100 0.0 1015319
09:00+10юз5986100 0.3 1015562
12:00+10зюз61083100 0.5 1016702
15:00+10юз61088100 1.7 1016579
18:00+11юз5108250 1.9 1016507
21:00+9юз498812 2.6 1017201